SCP
0 0 0 0 0 0 0 0 0 0 0 0 0 0 0 0 0 0 0 0 0 0 0 0 0 0 0 0 0 0 0 0 0 0 0 0 0 0
0 0 0 0 0 0 0 0 0 0 0 0 0 0 0 0 0 0 0 0 0 0 0 0 0 0 0 0 0 0 0 0 0 0 0 0 0 0
0 0 0 0 0 0 0 0 0 0 0 0 0 0 0 0 0 0 0 0 0 0 0 0 0 0 0 0 0 0 0 0 0 0 0 0 0 0
0 0 0 0 0 0 0 0 0 0 0 0 0 0 0 0 0 0 0 0 0 0 0 0 0 0 0 0 0 0 0 0 0 0 0 0 0 0
0 0 0 0 0 0 0 0 0 0 0 0 0 0 0 0 0 0 0 0 0 0 0 0 0 0 0 0 0 0 0 0 0 0 0 0 0 0
0 0 0 0 0 0 0 0 0 0 0 0 0 0 0 0 0 0 0 0 0 0 0 0 0 0 0 0 0 0 0 0 0 0 0 0 0 0
0 0 0 0 0 0 0 0 0 0 0 0 0 0 0 0 0 0 0 0 0 0 0 0 0 0 0 0 0 0 0 0 0 0 0 0 0 0
0 0 0 0 0 0 0 0 0 0 0 0 0 0 0 0 0 0 0 0 0 0 0 0 0 0 0 0 0 0 0 0 0 0 0 0 0 0
0 0 0 0 0 0 0 0 0 0 0 0 0 0 0 0 0 0 0 0 0 0 0 0 0 0 0 0 0 0 0 0 0 0 0 0 0 0
0 0 0 0 0 0 0 0 0 0 0 0 0 0 0 0 0 0 0 0 0 0 0 0 0 0 0 0 0 0 0 0 0 0 0 0 0 0
0 0 0 0 0 0 0 0 0 0 0 0 0 0 0 0 0 0 0 0 0 0 0 0 0 0 0 0 0 0 0 0 0 0 0 0 0 0
0 0 0 0 0 0 0 0 0 0 0 0 0 0 0 0 0 0 0 0 0 0 0 0 0 0 0 0 0 0 0 0 0 0 0 0 0 0
0 0 0 0 0 0 0 0 0 0 0 0 0 0 0 0 0 0 0 0 0 0 0 0 0 0 0 0 0 0 0 0 0 0 0 0 0 0
0 0 0 0 0 0 0 0 0 0 0 0 0 0 0 0 0 0 0 0 0 0 0 0 0 0 0 0 0 0 0 0 0 0 0 0 0 0
0 0 0 0 0 -0 0 0 0 0 0 0 0 0 0 0 0 0 0 0 0 0 0 0 0 0 0 0 0 0 0 0 0 0 0 0 0 0
0 0 0 0 0 0 0 0 0 0 0 0 0 0 0 0 0 0 0 0 0 0 0 0 0 0 0 0 0 0 0 0 0 0 0 0 0 0
0 0 0 0 0 0 0 0 0 0 0 0 0 0 0 0 0 0 0 0 0 0 0 0 0 0 0 0 0 0 0 0 0 0 0 0 0 0
0 0 0 0 0 0 0 0 0 0 0 0 0 0 0 0 0 0 0 0 0 0 0 0 0 0 0 0 0 0 0 0 0 0 0 0 0 0
0 0 0 0 0 0 0 0 0 0 0 0 0 0 0 0 0 0 0 0 0 0 0 0 0 0 0 0 0 0 0 0 0 0 0 0 0 0
0 0 0 0 0 0 0 0 0 0 0 0 0 0 0 0 0 0 0 0 0 0 0 0 0 0 0 0 0 0 0 0 0 0 0 0 0 0
0 0 0 0 0 0 0 0 0 0 0 0 0 0 0 0 0 0 0 0 0 0 0 0 0 0 0 0 0 0 0 0 0 0 0 0 0 0
0 0 0 0 0 0 0 0 0 0 0 0 0 0 0 0 0 0 0 0 0 0 0 0 0 0 0 0 0 0 0 0 0 0 0 0 0 0
0 0 0 0 0 0 0 0 0 0 0 0 0 0 0 0 0 0 0 0 0 0 0 0 0 0 0 0 0 0 0 0 0 0 0 0 0 0
Wind_Speed
3 3 3 3 3 3 3 3 3 4 4 4 3 4 3 3 6 5 5 8 8 8 8 8 8 9 10 10 11 11 10 10 11 11 12 13 14 14
2 3 3 3 3 3 3 3 4 4 4 3 4 4 4 4 5 5 6 8 9 9 8 8 8 8 8 9 10 10 10 10 10 11 12 12 13 13
2 3 3 3 3 3 3 3 3 4 5 5 3 4 5 5 5 4 4 5 5 8 9 8 8 7 8 7 8 8 8 9 10 11 11 12 12 12
3 3 4 3 4 3 3 3 4 4 4 5 4 3 5 5 5 5 4 4 4 7 9 9 8 8 7 7 7 7 8 8 8 8 9 10 11 12
4 4 4 3 4 3 3 4 3 3 4 4 5 3 4 3 4 4 4 4 4 5 6 7 8 8 7 7 7 7 7 7 8 8 8 9 10 10
4 4 4 4 5 5 4 5 4 4 3 4 4 4 4 3 2 3 4 3 4 4 4 5 5 6 7 7 7 7 8 8 8 8 8 8 9 9
4 4 5 5 5 5 4 4 4 3 3 3 4 3 3 2 3 2 3 4 4 3 3 3 3 3 4 5 6 7 7 8 8 8 8 8 9 9
4 5 5 5 6 6 6 5 4 4 4 3 3 4 5 4 3 3 3 2 3 2 2 4 2 3 3 3 5 6 7 8 9 9 8 8 8 8
4 4 4 4 4 4 4 5 4 4 5 4 4 5 4 3 3 3 3 3 4 3 2 3 2 3 3 3 5 6 7 8 8 8 8 8 8 8
4 4 4 4 4 3 3 3 4 4 4 4 5 6 5 4 3 3 4 4 4 3 2 3 3 3 3 3 4 5 6 7 7 8 8 8 8 8
4 3 3 4 5 4 2 3 4 4 4 4 5 5 5 5 3 2 2 2 3 3 2 3 3 3 3 3 3 4 5 7 7 8 8 8 9 8
3 3 4 4 4 3 2 3 4 4 4 4 3 3 3 3 3 3 3 3 3 3 2 2 2 2 3 2 3 3 3 5 7 7 8 8 7 5
3 3 3 5 4 3 2 2 4 4 3 3 3 3 2 2 2 2 3 3 3 4 2 2 2 2 3 3 2 3 3 3 3 4 6 7 7 7
2 3 4 5 5 3 2 2 3 2 1 1 2 3 3 3 3 3 3 3 4 5 4 3 3 3 3 3 4 3 3 3 3 3 3 4 6 8
2 4 5 5 4 3 4 4 2 2 1 2 2 3 3 3 3 3 3 3 3 3 3 3 4 4 3 4 4 3 3 2 3 3 3 3 3 4
3 4 4 4 3 3 4 3 2 2 1 2 3 3 3 2 2 3 3 3 3 3 3 3 3 4 4 4 4 4 3 2 2 3 3 3 3 4
3 2 3 3 3 3 3 3 3 3 2 2 2 3 3 3 3 3 3 2 2 3 4 3 3 3 4 4 3 4 3 3 3 2 2 3 3 4
2 2 3 3 3 3 4 3 3 3 3 2 2 2 3 3 3 3 3 3 3 3 4 3 3 3 2 2 3 4 3 3 3 2 2 3 4 3
1 2 2 3 3 3 3 3 3 3 3 3 3 3 3 3 3 3 4 3 4 4 4 3 3 3 4 4 3 3 3 3 2 2 2 3 4 4
1 2 2 3 3 3 3 3 3 3 3 3 3 3 3 3 3 4 4 4 4 4 4 4 3 3 3 4 4 3 3 3 2 3 3 3 3 3
2 2 2 2 3 3 3 3 3 3 3 3 3 3 3 3 3 4 4 5 4 4 4 5 5 5 3 2 3 3 2 2 2 2 2 2 2 2
2 2 2 3 3 2 3 2 3 3 3 3 3 3 3 3 4 5 4 4 4 4 5 4 4 3 2 2 3 3 3 3 2 2 2 2 2 2
2 2 2 2 2 2 2 3 3 3 3 4 4 4 4 4 4 4 4 4 4 4 4 4 4 2 2 2 3 3 4 4 3 3 3 3 1 1
Wind_Direction
234 233 235 240 232 232 229 224 231 267 274 267 271 272 272 266 263 268 267 267 265 260 257 254 253 251 251 250 248 241 236 238 237 233 230 229 229 229
237 236 244 245 240 234 228 226 222 233 259 261 258 271 280 277 271 268 266 269 266 262 257 252 252 250 249 247 244 236 231 231 233 232 232 230 228 228
261 250 257 252 246 243 233 229 226 223 250 270 263 273 275 280 287 278 270 266 266 258 256 251 250 250 250 247 240 236 231 229 230 230 229 229 228 227
268 262 264 258 254 252 244 243 238 228 237 266 275 275 269 277 284 285 284 277 271 264 255 251 249 249 250 249 245 239 233 226 222 222 224 225 225 225
261 260 266 263 261 256 253 253 252 245 232 250 271 269 269 277 291 290 290 285 286 274 257 250 248 248 247 243 241 236 231 225 221 220 220 221 224 225
263 262 265 256 255 255 253 251 251 255 247 252 265 272 271 277 277 287 298 296 295 292 277 263 250 247 243 238 235 231 225 221 220 221 220 218 221 223
284 280 272 268 262 254 254 252 250 255 260 262 269 273 275 279 276 274 280 292 286 272 279 273 261 261 249 235 231 230 225 221 219 220 220 220 220 222
287 289 283 283 281 271 267 260 245 242 249 251 257 263 269 267 270 267 268 286 290 276 273 281 265 270 266 248 234 227 226 223 220 219 222 224 225 227
285 290 294 296 292 286 287 283 273 255 233 229 247 256 261 260 265 272 264 263 269 284 275 280 278 277 276 262 240 232 229 227 224 220 220 224 226 228
285 279 285 293 301 294 288 294 290 281 260 240 246 256 259 263 249 255 267 273 274 270 245 265 276 275 282 272 252 236 232 228 226 222 220 222 225 227
307 304 295 293 307 310 288 291 299 299 287 270 260 267 270 266 252 249 268 268 284 281 234 250 270 278 275 268 265 248 242 237 233 230 227 224 223 222
321 319 310 308 309 313 270 273 290 298 312 321 317 314 302 290 264 231 241 261 276 280 245 238 260 265 277 265 271 270 253 242 236 232 231 229 220 214
317 318 321 330 321 314 280 255 267 282 303 308 312 321 327 317 303 275 246 243 253 261 257 234 257 252 252 278 280 270 261 258 244 236 227 222 210 204
312 315 318 328 332 337 337 322 308 309 319 331 332 325 322 316 309 300 281 264 256 259 268 246 249 254 259 269 278 279 269 261 248 245 241 216 212 215
309 319 327 336 341 348 355 349 343 347 349 340 317 307 306 305 312 314 305 294 288 281 281 261 254 258 256 265 276 272 274 268 251 249 243 227 215 207
326 334 339 346 353 350 349 349 343 339 327 314 310 310 320 325 326 323 314 319 312 307 301 290 272 259 263 268 267 272 269 267 264 259 252 247 235 220
332 347 354 352 356 355 351 348 343 347 343 329 320 321 328 329 324 325 319 313 307 311 317 320 307 283 264 271 274 270 270 271 268 261 247 255 252 237
15 357 346 342 342 337 334 337 343 345 332 321 322 326 327 324 323 327 327 323 315 307 304 309 318 313 297 276 247 266 272 275 278 261 248 254 262 255
34 344 334 331 333 333 332 335 340 338 335 336 338 337 331 325 323 326 331 327 322 314 307 308 307 305 306 307 297 244 262 282 284 272 262 258 265 267
352 338 328 329 335 336 337 340 340 345 349 344 338 334 330 325 323 325 326 324 318 315 316 312 302 295 292 296 301 302 270 267 272 275 277 271 273 273
340 338 334 334 336 331 329 334 341 343 343 338 336 334 331 327 323 322 321 318 314 315 315 313 307 298 287 280 295 309 319 293 267 263 268 269 278 280
333 328 326 326 326 327 328 335 339 341 341 337 332 328 325 321 320 321 320 317 314 313 309 309 317 318 307 296 309 314 318 325 323 314 297 274 265 261
325 318 317 320 325 326 327 331 334 333 332 329 326 324 322 318 314 311 310 309 312 318 323 325 331 334 335 325 318 318 317 319 325 337 339 341 306 267